FENGYUN 1C DEB, 30317

Orbit data source: Space-Track

FENGYUN 1C DEB, 30317 is space debris in SSO originally from a launch on Mon, 10 May 1999 UTC launched from the Taiyaun Space Center, China (TSC). Fengyun 1C debris stems from the Chinese weather satellite Fengyun-1C, which was intentionally destroyed by a Chinese anti-satellite missile in 2007. This event dramatically increased the amount of space debris, with thousands of trackable fragments posing hazards to satellites and human spaceflight. The Fengyun 1C debris cloud has become a focal point in discussions about space sustainability and the need for international regulations to prevent the creation of new debris.

Loading next visibility...
Identifier
30317, 1999-025AAE
Orbit
SSO
Country
Flag of CNCN / PRC
Related business
Manufacturer
Unknown
Mission
Spacecraft
Bus & Motor
Unknown
Mass
Unknown
Launch date (UTC)
1999-05-10 (27 years ago)
Launch vehicle
Unknown
Launch site
Taiyaun Space Center, China (TSC)
Object type
Payload
Rocket body
Debris
Shape & HBR
Unknown shape, 0.1 m
Radar Cross Section
Medium (>0.1 m² and <1 m²)

Expand to show TLE details & history
Last TLE update: 7 hours ago

TLE from 7 hours ago
0 FENGYUN 1C DEB
1 30317U 99025AAE 26257.21619326  .00000276  00000-0  19042-3 0  9995
2 30317  98.7968 255.0855 0024368 219.6110 140.3280 14.07067431  8847
Epoch: 2026-09-14T05:11Z
TLE epoch observation values (Epoch: 2026-09-14T05:11:19.097Z)
Latitude
0.00003°
Longitude
-175.94375°
Altitude
885.932 km
Speed
7.402 km/s
True Right ascension
17h 00m 20s
True Declination
0° 00' 00"
Sunlit
Object was in daylight at epoch
Visualization orbit readout
Latitude
Unknown
Longitude
Unknown
Altitude
Unknown
Speed
Unknown
Apparent Right ascension
Unknown
Apparent Declination
Unknown
Sunlit
N/A
Visualization observer readout
Local Sidereal Time
05:05:11
Azimuth
Unknown
Elevation
Unknown
Doppler factor
Unknown
Orbital elements
Apogee altitude
884.258 km
Perigee altitude
848.95 km
Semi-major axis
7,244.741 km
Eccentricity
0.00244
Inclination
98.7968°
RAAN
255.0855°
Arg. of periapsis
219.611°
True anomaly
140.50585°
Mean anomaly
140.328°
Eccentric anomaly
140.41696°
Mean motion
3.51973 °/min
Orbital period
102.28 mins
BSTAR
0.00019042
Loading maneuver chart data...
Computing Atmospheric mass density...
Loading historical data...
Loading historical data...
Loading historical data...
Loading historical data...
Loading historical data...
Loading historical data...
Loading historical data...

Documentation

Showing up to 5 results
|